Regional Weather Roundup
Issued by NWS

Home | Current Version | Previous Version | Graphics & Text | Print | Product List | Glossary On
Versions: 1 2 3 4 5 6 7 8 9 10 11 12 13 14 15 16 17 18 19 20 21 22 23 24 25 26 27 28 29 30 31 32 33 34 35 36 37 38 39 40 41 42 43 44 45 46 47 48 49 50
000
ASUS43 KLOT 300108
RWRIL

ILLINOIS REGIONAL WEATHER ROUNDUP
NATIONAL WEATHER SERVICE CHICAGO/ROMEOVILLE IL
800 PM CDT SUN MAY 29 2016

NOTE: "FAIR" INDICATES FEW OR NO CLOUDS BELOW 12,000 FEET WITH NO
SIGNIFICANT WEATHER AND/OR OBSTRUCTIONS TO VISIBILITY.

* THESE STATIONS ARE NOT UNDER NWS QUALITY CONTROL. THEY ALSO MAY NOT
  REPORT WEATHER SUCH AS PRECIPITATION OR FOG.

ILZ001-002-007-009-015-016-024-300200-
NORTHWEST ILLINOIS

CITY           SKY/WX    TMP DP  RH WIND       PRES   REMARKS
MOLINE         CLEAR     77  57  50 SW6       29.99S
STERLING*      CLEAR     75  58  55 W7        30.00S
SAVANNA*       RAIN      75  58  55 N13       29.99R
$$

ILZ003-004-008-010-011-017-018-300200-
NORTH CENTRAL ILLINOIS

CITY           SKY/WX    TMP DP  RH WIND       PRES   REMARKS
ROCKFORD       PTCLDY    74  57  55 W7        30.00S
FREEPORT*      CLEAR     73  57  58 SW5       30.01R
ROCHELLE*      CLEAR     73  58  61 W8        30.00F
DE KALB*       CLEAR     74  58  55 W8        30.01S
$$

ILZ005-006-012>014-019>023-300200-
NORTHEAST ILLINOIS

CITY           SKY/WX    TMP DP  RH WIND       PRES   REMARKS
CHICAGO-OHARE  PTCLDY    76  57  51 W7        29.98R
CHICAGO-MIDWAY PTCLDY    78  55  44 W13       29.98S
AURORA         CLEAR     73  62  68 W6        30.00S
LANSING*       CLEAR     76  54  46 W7        29.99S
JOLIET*        CLEAR     79  57  46 CALM      29.99S HX  80
WAUKEGAN       CLEAR     75  56  51 VRB3      29.96S
DUPAGE AIRPORT CLEAR     74  56  53 W7        29.98S
KANKAKEE*      CLEAR     78  56  46 NW7       30.00S
WHEELING       CLEAR     77  55  46 W7        29.98S
MORRIS*        CLEAR     77  55  46 NW12      29.98S
ROMEOVILLE*    CLEAR     77  53  42 W7        30.00S
NORTHERLY ISL    N/A     78  53  41 W6          N/A
NORTHERLY ISL    N/A     78  53  41 W6          N/A
$$

LMZ740>746-300200-
SOUTHERN LAKE MICHIGAN

STATION/POSITION SKY/WX   TEMP    WIND        PRES    VSBY  WAVE
                          AIR SEA DIR/SP/G                  HT/PER
                          (F)     (DEG/KT/KT) (MB)    (MI)  (FT/S)
SOUTHERN BUOY              57 51  200/  8/ 10 1013.9          1
WILMETTE HARBOR            67 54  290/  8/ 10   N/A           1
HARRISON CRIB              79     260/ 17/ 19   N/A
BURNHAM HARBOR             78     250/  9/ 14   N/A
CALUMET HARBOR             79                 1014.8R
BURNS HARBOR               69     270/  6/  8 1015.9S
MICHIGAN CITY              70     220/  7/  7   N/A
MICHIGAN CITY 6N           64 59  260/  4/  6   N/A           1
ST. JOSEPH                 65 62  230/  6/  8   N/A           1/ 3
$$

ILZ025>027-034>036-040-047-049-050-058-095>099-300200-
WEST-CENTRAL ILLINOIS

CITY           SKY/WX    TMP DP  RH WIND       PRES   REMARKS
QUINCY         CLEAR     80  61  52 CALM      30.02F HX  81
GALESBURG*     CLEAR     76  57  52 SW3       30.02S
MACOMB*        CLEAR     78  56  47 W5        30.04F
JACKSONVILLE*  CLEAR     80  56  43 W3        30.03S HX  80
PITTSFIELD*    PTCLDY    78  64  61 SW3       30.05S HX  80
$$

ILZ028>032-037-038-041>044-048-051>054-059>061-300200-
CENTRAL ILLINOIS

CITY           SKY/WX    TMP DP  RH WIND       PRES   REMARKS
PONTIAC        PTCLDY    80  57  45 W8        30.01S HX  80
BLOOMINGTON    CLEAR     77  60  55 W8        30.04S
DECATUR        CLEAR     79  55  43 NW7       30.02S
PEORIA         CLEAR     79  55  43 CALM      30.02S
LACON*         CLEAR     78  53  42 W3        30.00S
LINCOLN*       CLEAR     79  60  51 CALM      30.02S HX  80
SPRINGFIELD    CLEAR     80  58  46 NW3       30.03S HX  80
TAYLORVILLE    CLEAR     78  57  48 NW5       30.03S
$$

ILZ033-039-045-046-055>057-062-063-300200-
EAST-CENTRAL ILLINOIS

CITY           SKY/WX    TMP DP  RH WIND       PRES   REMARKS
CHAMPAIGN      CLEAR     77  55  46 NW10      30.03R
RANTOUL*       CLEAR     79  59  49 W8        30.02S HX  80
MATTOON        CLEAR     75  52  44 NW8       30.02R
PARIS*         CLOUDY    77  56  48 NW5       30.02S
$$

ILZ079-100>102-300200-
SOUTHWEST ILLINOIS

CITY           SKY/WX    TMP DP  RH WIND       PRES   REMARKS
ALTON          PTCLDY    77  59  53 NW7       30.05R
BELLEVILLE     PTCLDY    78  60  52 W1        30.03S HX  80
CAHOKIA*       PTCLDY    79  58  48 NW3       30.03S HX  80
SPARTA*        PTCLDY    78  65  65 CALM      30.06S HX  80
$$

ILZ064>066-069>071-074>076-080>082-084>086-088>090-092>094-300200-
SOUTH-CENTRAL ILLINOIS

CITY           SKY/WX    TMP DP  RH WIND       PRES   REMARKS
CARBONDALE     PTCLDY    77  62  59 CALM      30.05S
CAIRO*         CLOUDY    79  65  62 N5        30.03F HX  81
EFFINGHAM*     CLOUDY    78  62  58 SW5       30.04S
MARION         PTCLDY    75  66  73 CALM      30.06R
MT. VERNON     CLEAR     72  64  78 CALM      30.05S
CENTRALIA*     PTCLDY    77  70  80 CALM      30.04S
SALEM*         PTCLDY    80  65  58 CALM      30.04S HX  82
METROPOLIS*    PTCLDY    79  65  62 CALM      30.05R HX  81
$$

ILZ067-068-072-073-078-083-087-091-300200-
SOUTHEAST ILLINOIS

CITY           SKY/WX    TMP DP  RH WIND       PRES   REMARKS
LAWRENCEVILLE  CLEAR     78  60  53 W7        30.02F
FLORA*         CLEAR     76  68  76 SW5       30.04S
FAIRFIELD*     CLEAR     73  66  78 CALM      30.03F
HARRISBURG*    CLEAR     78  63  60 CALM      30.04S HX  80
ROBINSON*      PTCLDY    76  62  60 W6        30.03S
CARMI*         PTCLDY    77  65  67 NW6       30.03S
$$

ABBREVIATIONS USED IN REMARKS
   TC - TEMPERATURE IN CELSIUS
  WCI - WIND CHILL INDEX
   HX - HEAT INDEX
  VSB - VISIBILITY
$$




USA.gov is the U.S. government's official web portal to all federal, state and local government web resources and services.